Printer-friendly version

IAU Minor Planet Center

Minor Planet Center

MPEC 2007-C26 : 2007 CQ5

The following Minor Planet Electronic Circular may be linked-to from your own Web pages, but must not otherwise be redistributed electronically.


Read MPEC 2007-C25 Read MPEC 2007-C27


M.P.E.C. 2007-C26                                Issued 2007 Feb. 8, 14:05 UT

     The Minor Planet Electronic Circulars contain information on unusual
         minor planets and routine data on comets.  They are published
   on behalf of Commission 20 of the International Astronomical Union by the
          Minor Planet Center, Smithsonian Astrophysical Observatory,
                          Cambridge, MA 02138, U.S.A.

             Prepared using the Tamkin Foundation Computer Network

                              MPC@CFA.HARVARD.EDU
          URL http://cfa-www.harvard.edu/iau/mpc.html  ISSN 1523-6714

                                   2007 CQ5

Observations:
     K07C05Q* C2007 02 07.49635 11 49 50.52 +31 33 20.5          19.8 V EC026G96
     K07C05Q  C2007 02 07.49692 11 49 50.62 +31 33 20.7          20.0 V EC026G96
     K07C05Q  C2007 02 07.50463 11 49 51.85 +31 33 23.5          19.9 V EC026G96
     K07C05Q  C2007 02 07.50517 11 49 51.88 +31 33 23.4          20.1 V EC026G96
     K07C05Q  C2007 02 07.51288 11 49 53.18 +31 33 26.5          20.4 V EC026G96
     K07C05Q  C2007 02 07.51343 11 49 53.25 +31 33 26.7          20.2 V EC026G96
     K07C05Q  C2007 02 07.52106 11 49 54.55 +31 33 29.7          19.6 V EC026G96
     K07C05Q  C2007 02 07.52162 11 49 54.62 +31 33 29.5          20.4 V EC026G96
     K07C05Q  C2007 02 07.53029 11 49 56.06 +31 33 32.6          20.8 V EC026G96
     K07C05Q  C2007 02 07.53321 11 49 56.53 +31 33 34.0          20.3 V EC026G96
     K07C05Q  C2007 02 07.53605 11 49 57.03 +31 33 35.1          20.5 V EC026G96
     K07C05Q  C2007 02 07.53896 11 49 57.50 +31 33 36.1          21.5 V EC026G96
     K07C05Q  C2007 02 08.28367 11 52 15.56 +31 38 49.9          20.1 V EC026G96
     K07C05Q  C2007 02 08.29219 11 52 17.00 +31 38 54.1          20.1 V EC026G96
     K07C05Q  C2007 02 08.30054 11 52 18.40 +31 38 58.2          19.5 V EC026G96
     K07C05Q  C2007 02 08.30888 11 52 19.77 +31 39 02.4          18.6 V EC026G96

Observer details:
G96 Mt. Lemmon Survey.  Observer R. A. Kowalski.  Measurers E. C. Beshore,
    E. J. Christensen, G. J. Garradd, A. R. Gibbs, A. D. Grauer, R. E. Hill,
    R. A. Kowalski, S. M. Larson, R. H. McNaught.  1.5-m reflector + CCD.

Orbital elements:
2007 CQ5                                                 Earth MOID = 0.0930 AU
Epoch 2007 Apr. 10.0 TT = JDT 2454200.5                 MPC
M   8.22104              (2000.0)            P               Q
n   0.52453800     Peri.  142.58523     -0.99356666     +0.09831053
a   1.5227131      Node    43.16249     -0.11312104     -0.88510777
e   0.2899159      Incl.    4.71388     +0.00537775     -0.45488381
P   1.88           H   22.0           G   0.15           U   9
Residuals in seconds of arc
070207 G96  0.4+  0.1+    070207 G96  0.2+  0.2+    070208 G96  0.1-  0.1+
070207 G96  0.5+  0.0     070207 G96  0.1-  0.2-    070208 G96  0.1+  0.0
070207 G96  0.1+  0.0     070207 G96  0.0   0.2-    070208 G96  0.1+  0.1-
070207 G96  0.6-  0.3-    070207 G96  0.1-  0.2+    070208 G96  0.1-  0.0
070207 G96  0.2-  0.1-    070207 G96  0.2+  0.3+
070207 G96  0.4-  0.1-    070207 G96  0.1+  0.2+

Ephemeris:
2007 CQ5                 a,e,i = 1.52, 0.29, 5                   q = 1.0813
Date    TT    R. A. (2000) Decl.     Delta      r     Elong.  Phase     V
2007 02 09    11 54.38   +31 43.8    0.196    1.149   142.8    31.3    20.1
2007 02 19    12 25.90   +32 24.4    0.164    1.123   142.1    32.8    19.7
2007 03 01    12 59.64   +31 40.8    0.140    1.102   140.8    34.6    19.4
2007 03 11    13 34.23   +28 46.2    0.121    1.089   140.2    35.7    19.1
2007 03 21    14 06.61   +23 05.8    0.107    1.082   141.5    35.0    18.8
2007 03 31    14 33.76   +14 32.0    0.0997   1.082   145.5    31.5    18.5
2007 04 10    14 53.79   +04 02.0    0.0990   1.090   152.2    25.4    18.3
2007 04 20    15 05.88   -06 34.0    0.106    1.105   160.6    17.6    18.3
2007 04 30    15 11.62   -15 34.1    0.121    1.126   169.2     9.6    18.3
2007 05 10    15 13.66   -22 09.8    0.143    1.152   174.9     4.5    18.5
2007 05 20    15 14.62   -26 28.0    0.174    1.184   170.3     8.2    19.1
2007 05 30    15 17.10   -29 02.6    0.213    1.219   162.9    14.2    19.9
2007 06 09    15 22.27   -30 28.4    0.260    1.257   155.6    19.5    20.6
2007 06 19    15 30.43   -31 12.2    0.316    1.297   148.6    24.1    21.2
2007 06 29    15 41.57   -31 33.0    0.381    1.338   142.0    27.9    21.8

Timothy B. Spahr             (C) Copyright 2007 MPC           M.P.E.C. 2007-C26

Read MPEC 2007-C25 Read MPEC 2007-C27


Our Web policy. Index to the CBAT/MPC/ICQ pages.


Valid HTML 4.01!